星链-5388 (STARLINK-5388 )

导读

STARLINK-5388是美国太空探索技术公司(SpaceX)星链互联网项目中的一颗卫星,于2022年12月28日发射入轨,属于星链计划第二代低轨卫星星座组网卫星,旨在为全球范围内用户提供高速低延迟的宽带互联网接入服务,目前正常在轨运行,服务全球卫星通信网络。

Basic Information
目录编号:
54844
目录名称:
STARLINK-5388
国际标识:
2022-177AA
轨道中心:
EARTH
卫星名称:
星链-5388
卫星全名:
星链-5388 (STARLINK-5388 )
卫星状态:
在轨 (已飞行1346 天)
发射日期:
2022-12-28 UTC
国别 :
美国 (US)
星等 :
--
Orbit Information
数据来源 国际轨道数据 AOE轨道数据
星历时间 2026-09-04T13:43:32+0800
8小时前
查看轨道信息
2026-09-04T00:00:00+0800
22小时前
查看轨道信息
半长轴 6861.199km 6861.192km
偏心率 0.0001349 0.0001343
轨道倾角 43.001° 42.999°
近地点辐角 262.954° 260.113°
升交点赤经 207.383° 210.616°
平近点角 97.116° 191.274°
近地点 482.136km 482.133km
远地点 483.988km 483.977km
周期 94.267分钟 94.267分钟
每日圈数 15.275757 15.275783
Detailed Information
固有亮度:
5
最大亮度:
2.5
卫星平台:
Starlink v1.5
覆盖范围:
全球
运营商:
太空探索技术公司
运营商所在国:
美国
制造商(研发单位):
太空探索技术公司
制造商所在国:
美国
使用方式:
暂无
Satellite Introduction
星链(Starlink)计划是由太空探索技术公司(SpaceX)提出的一个巨型低轨卫星互联网星座项目,计划在2019年至2024年间在太空搭建由约1.2万颗卫星组成的“星链”网络,其中1584颗将部署在地球上空550千米处的近地轨道,并从2020年开始工作。该卫星仍在工作。
2D Orbit Map
3D Orbit Map
Orbit Altitude Analysis Chart
Orbit Inclination Analysis Chart
Orbit Comprehensive Analysis Chart
View Comprehensive Chart
Conjunction Data List
Event ID Objects TCA Miss Dist (km) Collision Risk Probability Collision Risk Index (CRI) Action
CDM_260903-053705-484405-961823
2026-09-03T
05:37:38+0000
0.048 km
近距离
1.401273E-3 极高风险 0.98
CDM_260903-040305-484405-961823
2026-09-03T
04:03:28+0000
1.267 km
极远距离
7.488849E-6 低风险 0.52
CDM_260903-071105-484405-961823
2026-09-03T
07:11:47+0000
1.367 km
极远距离
5.795621E-6 低风险 0.5
CDM_260903-235405-484405-620024
HAWK-7C (56200)
2026-09-03T
23:54:07+0000
1.537 km
极远距离
4.909663E-6 低风险 0.49
CDM_260904-145105-484406-324122
2026-09-04T
14:51:07+0000
2.122 km
极远距离
1.900322E-6 低风险 0.41
CDM_260903-041305-484405-719425
2026-09-03T
04:13:15+0000
2.509 km
极远距离
1.512515E-6 低风险 0.39
CDM_260903-022905-484405-961821
2026-09-03T
02:29:19+0000
2.568 km
极远距离
1.136692E-6 低风险 0.36
CDM_260904-153805-484406-324121
2026-09-04T
15:38:14+0000
2.820 km
极远距离
1.13592E-6 低风险 0.36
CDM_260903-084505-484405-961823
2026-09-03T
08:45:56+0000
2.699 km
极远距离
1.053351E-6 低风险 0.35